Regional Weather Roundup
Issued by NWS

Home | Current Version | Previous Version | Text Only | Print | Product List | Glossary On
Versions: 1 2 3 4 5 6 7 8 9 10 11 12 13 14 15 16 17 18 19 20 21 22 23 24 25 26 27 28 29 30 31 32 33 34 35 36 37 38 39 40 41 42 43 44 45 46 47 48 49 50
000
ASUS43 KOAX 241410
RWRNE

WEATHER ROUNDUP FOR NEBRASKA
NATIONAL WEATHER SERVICE OMAHA NE
900 AM CDT MON APR 24 2017

NOTES: SATELLITE DATA IS BEING USED TO AUGMENT CLOUD COVER ABOVE
       12000 FEET.
       "FAIR" INDICATES FEW OR NO CLOUDS BELOW 12,000 FEET WITH NO
       SIGNIFICANT WEATHER AND/OR OBSTRUCTIONS TO VISIBILITY.

  * THESE STATIONS DO NOT REPORT WEATHER SUCH AS RAIN...SNOW OR FOG.

NEZ001>004-019>022-054>056-241500-
NEBRASKA PANHANDLE

CITY           SKY/WX    TMP DP  RH WIND       PRES   REMARKS
SCOTTSBLUFF    SUNNY     55  40  56 NW16      29.67R
ALLIANCE       MOSUNNY   51  42  71 W14       29.62R
CHADRON        CLOUDY    50  43  77 N6        29.62R
KIMBALL        CLOUDY    53  39  59 NW21G29   29.69R
SIDNEY         CLOUDY    51  37  58 NW21G28   29.65R
$$

NEZ057>060-069>072-079>082-241500-
SOUTHWEST NEBRASKA

CITY           SKY/WX    TMP DP  RH WIND       PRES   REMARKS
NORTH PLATTE   CLOUDY    51  39  63 W3        29.58R
IMPERIAL       PTSUNNY   52  41  66 NW14      29.59R
LEXINGTON      MOSUNNY   54  37  51 S15       29.56F
MCCOOK         CLOUDY    54  41  61 W9        29.55R
OGALLALA       MOSUNNY   49  39  66 W9        29.60S
$$

NEZ005>010-023>029-035>040-094-241500-
NORTH CENTRAL NEBRASKA

CITY           SKY/WX    TMP DP  RH WIND       PRES   REMARKS
VALENTINE      MOSUNNY   55  35  47 NW6       29.55R
AINSWORTH      CLOUDY    53  39  58 S17       29.55S
BROKEN BOW     CLOUDY    50  38  63 S7        29.57S
O`NEILL        CLOUDY    51  37  56 S16G24    29.57F
ORD            CLOUDY    55  35  47 S14G23    29.58F
THEDFORD       CLOUDY    51  38  60 S5        29.57S
$$

NEZ041-046>049-061>064-073>077-083>087-241500-
SOUTH CENTRAL NEBRASKA

CITY           SKY/WX    TMP DP  RH WIND       PRES   REMARKS
GRAND ISLAND   MOSUNNY   56  36  47 S24G35    29.63F
AURORA         MOSUNNY   56  35  46 S18G30    29.63F
HASTINGS       MOSUNNY   57  35  43 S17G33    29.62F
HEBRON         SUNNY     56  37  48 S26G36    29.68F
HOLDREGE       CLOUDY    54  35  48 S20G31    29.56F
KEARNEY *      CLOUDY    55  34  44 S22G35    29.58S
YORK           MOSUNNY   55  36  47 S25G37    29.64F
$$

NEZ011>018-030>034-042>045-241500-
NORTHEAST NEBRASKA

CITY           SKY/WX    TMP DP  RH WIND       PRES   REMARKS
NORFOLK        CLOUDY    55  35  47 S13G26    29.66R
ALBION         CLOUDY    55  36  48 S16       29.64F
BLAIR          MOSUNNY   57  36  45 S26G32    29.72F
FREMONT        MOSUNNY   56  37  48 SE17G30   29.69F
TEKAMAH        MOSUNNY   58  38  47 S24       29.71F
WAYNE          CLOUDY    54  39  58 S18       29.68R
$$

NEZ050>053-065>068-078-088>093-241500-
SOUTHEAST NEBRASKA

CITY           SKY/WX    TMP DP  RH WIND       PRES   REMARKS
LINCOLN        CLOUDY    57  37  47 S22G33    29.71F
OMAHA EPPLEY   PTSUNNY   58  36  43 S22G32    29.75F
BEATRICE       MOSUNNY   58  38  48 S20G33    29.73S
FALLS CITY     SUNNY     58  38  47 S24G35    29.80F
NEBRASKA CITY  MOSUNNY   57  31  38 S29       29.78F
PLATTSMOUTH    SUNNY     58  32  37 S21G35    29.76F
$$

NEZ044-045-051>053-067-241500-
OMAHA AREA

CITY           SKY/WX    TMP DP  RH WIND       PRES   REMARKS
OMAHA EPPLEY   PTSUNNY   58  36  43 S22G32    29.75F
BLAIR          MOSUNNY   57  36  45 S26G32    29.72F
FREMONT        MOSUNNY   56  37  48 SE17G30   29.69F
MILLARD        MOSUNNY   60  39  46 S16G24    29.75F
OFFUTT AFB     SUNNY     57  38  48 S15       29.76F
PLATTSMOUTH    SUNNY     58  32  37 S21G35    29.76F
WAHOO          FAIR      56  36  46 S22       29.70F
$$



USA.gov is the U.S. government's official web portal to all federal, state and local government web resources and services.